[[{"header":{"parameterUnit":"m.s-1","parameterCategory":1,"la1":30.2991,"la2":30.254,"lo1":-89.0895,"lo2":-89.0444,"dy":0.0017,"dx":0.0017,"nx":28,"ny":28,"refTime":"2024-11-24T09:00:00:Z","depth":0,"parameterNumber":2,"parameterNumberName":"U-component_of_WINDS"},"data":[0,0,0,0,0,0,0,0,0,0,0,0,0,0,0,0,0,0,0,0,0,0,0,0,0,0,0,0,0,0,0,0,0,0,0,0,0,0,0,0,0,0,0,0,0,0,0,0,0,0,0,0,0,0,0,0,0,0,0.2578,0.258,0,0.2686,0.2688,0.2689,0.2726,0.2725,0.2725,0.2725,0.2837,0.284,0.2843,0,0,0,0,0,0,0,0,0,0,0,0,0,0.2405,0.2408,0.2578,0.258,0.2581,0.2686,0.2688,0.2689,0.2726,0.2725,0.2725,0.2724,0.2836,0.284,0.2844,0,0,0,0,0,0,0,0,0,0,0,0,0,0.2494,0.2409,0.2578,0.2612,0.2616,0.2686,0.2688,0.269,0.2726,0.2725,0.2725,0.2724,0.2834,0.2839,0.2844,0.2889,0,0,0.286,0.2862,0,0,0,0,0,0,0,0,0.2489,0.25,0.2606,0.261,0.2615,0.2692,0.2668,0.2756,0.2726,0.2684,0.2725,0.2724,0.2789,0.2798,0.282,0.2894,0.2899,0.286,0.2863,0.2866,0.2867,0,0,0,0,0,0,0,0.2482,0.2495,0.2621,0.2607,0.2613,0.2622,0.2634,0.2685,0.2739,0.2688,0.2691,0.2703,0.2792,0.2815,0.2823,0.29,0.286,0.2865,0.2868,0.287,0.3016,0.3017,0,0,0,0,0,0,0.247,0.249,0.2618,0.2624,0.2549,0.2626,0.2639,0.2668,0.2739,0.2749,0.2703,0.2704,0.2806,0.2817,0.2827,0.2883,0.2866,0.287,0.2873,0.3015,0.3016,0.3017,0,0,0,0,0,0,0.2466,0.2481,0.2613,0.2558,0.2576,0.263,0.2661,0.267,0.2693,0.275,0.276,0.2717,0.2806,0.282,0.2873,0.2887,0.2873,0.2877,0.3014,0.3016,0.3017,0.2996,0,0,0,0,0,0,0.2461,0.248,0.2497,0.2558,0.2578,0.2657,0.2662,0.2673,0.2702,0.2704,0.2766,0.2775,0.2807,0.2865,0.2878,0.2894,0.2881,0.3013,0.3015,0.3016,0.2995,0.2996,0.2997,0,0,0,0,0,0.2455,0.2487,0.2498,0.2513,0.2601,0.2658,0.2669,0.2704,0.2703,0.2721,0.2757,0.2774,0.2884,0.287,0.2885,0.2903,0.3013,0.3014,0.3016,0.2995,0.2996,0.2997,0,0,0,0,0,0,0.2427,0.2496,0.2508,0.2561,0.2603,0.2664,0.2687,0.2704,0.2748,0.2748,0.279,0.2804,0.2854,0.2884,0.2868,0.2949,0.2949,0.2954,0.2928,0.2929,0.293,0.2921,0.2885,0,0,0,0,0,0.2427,0.2467,0.2525,0.2566,0.2586,0.2633,0.2659,0.2682,0.2728,0.2746,0.2787,0.2831,0.2876,0.2904,0.2948,0.3,0.3014,0.302,0.302,0.3021,0.3024,0.3053,0.3056,0.3023,0.3023,0.3023,0,0,0.2427,0.2469,0.2492,0.2561,0.2597,0.2638,0.2648,0.2691,0.2722,0.2753,0.2805,0.2837,0.2889,0.2941,0.2966,0.2968,0.3036,0.3023,0.3023,0.3026,0.3055,0.3058,0.3061,0.3025,0.3024,0.3024,0,0,0.2448,0.2484,0.2522,0.2557,0.261,0.2641,0.265,0.2709,0.273,0.2783,0.2808,0.2845,0.2921,0.2957,0.2985,0.3019,0.3036,0.3033,0.3036,0.3064,0.3066,0.3069,0.3081,0.3084,0.3036,0.3036,0.3036,0,0.2441,0.2503,0.254,0.2581,0.261,0.264,0.2679,0.2711,0.2777,0.2796,0.2797,0.2892,0.293,0.299,0.2999,0.3021,0.3032,0.3026,0.3063,0.3066,0.3069,0.308,0.3085,0.3035,0.3035,0.3036,0.3036,0,0.2493,0.2535,0.256,0.2621,0.2653,0.2693,0.2735,0.2764,0.2784,0.2815,0.2868,0.2914,0.2968,0.2984,0.3005,0.3048,0.3047,0.3055,0.3055,0.307,0.3082,0.3087,0.3034,0.3035,0.3035,0.3035,0,0,0.2499,0.2579,0.2588,0.2615,0.2676,0.271,0.2751,0.2803,0.2826,0.2871,0.2906,0.2969,0.2977,0.3009,0.3034,0.3058,0.3081,0.3063,0.3065,0.3064,0.3131,0.3125,0.3129,0.3093,0.3094,0.3095,0.3127,0,0.2528,0.2602,0.2635,0.2694,0.2734,0.2763,0.2799,0.284,0.287,0.2908,0.2941,0.2985,0.2992,0.3011,0.3037,0.3073,0.3095,0.3071,0.3126,0.3128,0.3112,0.3135,0.3129,0.3157,0.3132,0.3132,0.3133,0,0.2571,0.2614,0.2677,0.2732,0.275,0.2782,0.2831,0.2868,0.2915,0.2935,0.297,0.2994,0.3039,0.3036,0.3098,0.3081,0.3106,0.3127,0.3129,0.3135,0.3131,0.3142,0.3167,0.317,0.3141,0.314,0.3139,0,0.2568,0.2642,0.2689,0.2712,0.2778,0.28,0.2828,0.2875,0.2904,0.2948,0.2967,0.3016,0.3042,0.3079,0.3116,0.3111,0.3174,0.3175,0.3192,0.3191,0.3204,0.3202,0.3232,0.322,0.322,0.322,0.322,0,0.2596,0.2633,0.2689,0.2717,0.276,0.2798,0.284,0.287,0.2912,0.2947,0.2975,0.3008,0.3054,0.3093,0.3122,0.3169,0.3181,0.3198,0.3205,0.3195,0.3193,0.3212,0.3211,0.3221,0.3221,0.3221,0.3221,0,0.26,0.2639,0.2692,0.275,0.2765,0.2794,0.2844,0.2873,0.2904,0.2949,0.2962,0.301,0.3058,0.3097,0.316,0.3179,0.3227,0.3236,0.3211,0.3215,0.3229,0.3227,0.3272,0.328,0.3262,0.3263,0.3263,0,0.2615,0.2645,0.2705,0.2731,0.2759,0.28,0.2829,0.2868,0.2897,0.2953,0.2976,0.3025,0.3066,0.314,0.3181,0.3229,0.3239,0.3251,0.3246,0.3235,0.3238,0.3236,0.3239,0.3251,0.3251,0.3251,0.3251,0,0.2638,0.2655,0.2696,0.2744,0.2778,0.2817,0.2858,0.2877,0.2923,0.2955,0.3003,0.3035,0.3098,0.3146,0.3198,0.3228,0.3247,0.3253,0.3259,0.3249,0.3233,0.3241,0.3211,0.3251,0.3251,0.3251,0.3251,0.3251,0.2648,0.2675,0.2722,0.2766,0.2801,0.2837,0.2867,0.2902,0.2942,0.2996,0.3017,0.3066,0.3113,0.3184,0.3214,0.3253,0.3256,0.3266,0.3268,0.327,0.3268,0.3227,0.3263,0.3263,0.3263,0.3263,0.3263,0,0.2672,0.2703,0.2744,0.2798,0.2833,0.2848,0.2893,0.2922,0.2964,0.3006,0.3045,0.31,0.3147,0.3192,0.3241,0.3264,0.3274,0.3275,0.3274,0.328,0.3263,0.3252,0.3266,0.3266,0.3266,0.3266,0.3266,0.3266,0.2688,0.2734,0.2757,0.2821,0.2852,0.29,0.2924,0.2958,0.2992,0.3051,0.309,0.3119,0.3162,0.3214,0.3258,0.327,0.3286,0.3285,0.33,0.3282,0.3282,0.3281,0.3271,0.3289,0.3289,0.3314,0.3314,0.3314]},{"header":{"parameterUnit":"m.s-1","parameterCategory":1,"la1":30.2991,"la2":30.254,"lo1":-89.0895,"lo2":-89.0444,"dy":0.0017,"dx":0.0017,"nx":28,"ny":28,"refTime":"2024-11-24T09:00:00:Z","depth":0,"parameterNumber":3,"parameterNumberName":"V-component_of_WINDS"},"data":[0,0,0,0,0,0,0,0,0,0,0,0,0,0,0,0,0,0,0,0,0,0,0,0,0,0,0,0,0,0,0,0,0,0,0,0,0,0,0,0,0,0,0,0,0,0,0,0,0,0,0,0,0,0,0,0,0,0,4.7338,4.7342,0,4.7669,4.7673,4.7677,4.7751,4.7748,4.7746,4.7744,4.8076,4.8087,4.8098,0,0,0,0,0,0,0,0,0,0,0,0,0,4.6764,4.6774,4.7338,4.7342,4.7346,4.7669,4.7673,4.7678,4.7751,4.7748,4.7745,4.7743,4.8073,4.8086,4.8099,0,0,0,0,0,0,0,0,0,0,0,0,0,4.7046,4.6778,4.7337,4.7422,4.7433,4.7668,4.7673,4.7679,4.7752,4.7748,4.7745,4.7741,4.8068,4.8084,4.8101,4.8273,0,0,4.8151,4.8158,0,0,0,0,0,0,0,0,4.703,4.7067,4.7405,4.7416,4.7429,4.7665,4.7593,4.7878,4.7752,4.763,4.7744,4.774,4.7942,4.7969,4.8038,4.8289,4.8303,4.8153,4.8163,4.817,4.8175,0,0,0,0,0,0,0,4.701,4.7053,4.7469,4.741,4.7425,4.7442,4.7478,4.7647,4.7801,4.7641,4.7647,4.7685,4.7948,4.8022,4.8047,4.8308,4.8152,4.8167,4.8177,4.8184,4.8718,4.8722,0,0,0,0,0,0,4.6977,4.7036,4.7458,4.7479,4.7217,4.7455,4.7495,4.7593,4.78,4.7828,4.7688,4.7688,4.7996,4.8027,4.8058,4.8275,4.817,4.8185,4.8195,4.8714,4.8719,4.8723,0,0,0,0,0,0,4.6964,4.7014,4.7445,4.726,4.7316,4.7469,4.7577,4.7601,4.7676,4.7836,4.7863,4.7736,4.7994,4.8035,4.822,4.8287,4.8193,4.8208,4.8709,4.8715,4.8721,4.8708,0,0,0,0,0,0,4.6947,4.7009,4.7077,4.7261,4.7325,4.7602,4.7582,4.761,4.7705,4.7707,4.7888,4.7915,4.7994,4.8195,4.8236,4.8309,4.8221,4.8703,4.8711,4.8719,4.8703,4.8713,4.8722,0,0,0,0,0,4.6927,4.7058,4.708,4.713,4.7414,4.7606,4.7643,4.7734,4.771,4.7779,4.7882,4.7909,4.8274,4.8213,4.8261,4.8339,4.8699,4.8709,4.8718,4.8699,4.8711,4.8722,0,0,0,0,0,0,4.6875,4.7084,4.711,4.7305,4.7438,4.7618,4.7708,4.7744,4.7884,4.788,4.7985,4.8026,4.8204,4.829,4.8219,4.8517,4.8485,4.8505,4.8454,4.8468,4.8477,4.8452,4.8234,0,0,0,0,0,4.6887,4.7028,4.7201,4.7357,4.7422,4.7554,4.7641,4.77,4.784,4.7896,4.8012,4.8146,4.8291,4.8384,4.8526,4.8716,4.8757,4.8794,4.8803,4.881,4.8825,4.8933,4.8951,4.8755,4.8755,4.8754,0,0,4.6912,4.7044,4.7125,4.735,4.746,4.7601,4.76,4.775,4.7856,4.7918,4.8101,4.8191,4.8347,4.8535,4.8624,4.8612,4.8889,4.8822,4.8826,4.8838,4.8944,4.8963,4.8979,4.8761,4.876,4.8759,0,0,4.7031,4.7144,4.7287,4.7398,4.7565,4.7652,4.7686,4.7862,4.7925,4.8111,4.8161,4.8287,4.8535,4.8644,4.8732,4.8895,4.8924,4.8938,4.8986,4.909,4.9105,4.912,4.9178,4.9197,4.8953,4.8953,4.8953,0,4.704,4.7258,4.7355,4.7504,4.7601,4.7667,4.7812,4.7914,4.8117,4.8183,4.8167,4.8481,4.859,4.8806,4.8846,4.8915,4.8956,4.8917,4.9096,4.9111,4.9126,4.9182,4.9204,4.8953,4.8953,4.8953,4.8953,0,4.7261,4.7411,4.7506,4.7705,4.7813,4.7958,4.8077,4.8174,4.8224,4.8312,4.85,4.8635,4.8806,4.8861,4.891,4.9085,4.9072,4.9075,4.9045,4.9143,4.9198,4.922,4.8954,4.8954,4.8954,4.8953,0,0,4.7355,4.7607,4.764,4.7732,4.7922,4.8039,4.8188,4.8358,4.8439,4.8578,4.8705,4.8914,4.8918,4.9018,4.908,4.9172,4.9292,4.9164,4.9169,4.9183,4.9492,4.9489,4.9512,4.9313,4.9318,4.9322,4.9479,0,4.7496,4.7766,4.7859,4.8082,4.8222,4.8287,4.8417,4.8547,4.8633,4.8764,4.8858,4.9005,4.9,4.9061,4.9154,4.9257,4.9355,4.9247,4.9431,4.9436,4.9389,4.9541,4.9537,4.9679,4.9501,4.9505,4.9508,0,4.7697,4.7842,4.8079,4.8253,4.8315,4.843,4.8594,4.8718,4.8867,4.8924,4.9036,4.9093,4.925,4.9211,4.9428,4.9353,4.9434,4.9496,4.9503,4.9523,4.9477,4.9564,4.9727,4.9748,4.9542,4.9539,4.9537,0,4.7741,4.7995,4.8171,4.8247,4.8454,4.8534,4.8623,4.8769,4.8866,4.9009,4.9072,4.923,4.9317,4.9437,4.9534,4.9497,4.9743,4.9712,4.9793,4.9791,4.9841,4.9836,5.0018,4.9893,4.9893,4.9893,4.9892,0,4.7889,4.8032,4.8194,4.8301,4.8463,4.8568,4.8725,4.8818,4.8948,4.9074,4.9139,4.9256,4.9377,4.9509,4.9586,4.9754,4.9793,4.9842,4.986,4.9836,4.983,4.989,4.9882,4.9898,4.9897,4.9896,4.9895,0,4.7966,4.808,4.8276,4.8457,4.8506,4.8617,4.8772,4.8879,4.8969,4.9128,4.9171,4.9312,4.9471,4.9581,4.9784,4.9835,5.0018,5.0035,4.9968,4.9977,5.0052,5.0043,5.0278,5.0315,5.0165,5.0166,5.0167,0,4.8052,4.8164,4.8359,4.8449,4.854,4.8685,4.8785,4.8893,4.8994,4.9173,4.9257,4.9422,4.9559,4.981,4.9929,5.0085,5.0106,5.0178,5.013,5.0102,5.0107,5.0099,5.0111,5.0185,5.0186,5.0187,5.0187,0,4.8194,4.8246,4.8389,4.8552,4.867,4.8803,4.8937,4.9006,4.9138,4.9248,4.9413,4.9519,4.9729,4.9891,5.0059,5.0149,5.019,5.0202,5.0229,5.0205,5.0162,5.0186,4.9988,5.0196,5.0195,5.0194,5.0194,5.0194,4.8279,4.8382,4.8536,4.8693,4.8805,4.8929,4.9039,4.9144,4.9284,4.9465,4.952,4.9691,4.9838,5.0068,5.0161,5.0296,5.029,5.0329,5.0339,5.0347,5.0347,5.0141,5.0327,5.0327,5.0327,5.0327,5.0326,0,4.8424,4.8527,4.8671,4.8857,4.8981,4.9011,4.9161,4.9262,4.9413,4.9547,4.9682,4.9872,5.003,5.0162,5.0325,5.0408,5.0431,5.0447,5.0441,5.0462,5.0342,5.0303,5.0426,5.0426,5.0426,5.0426,5.0425,5.0425,4.8514,4.869,4.876,4.8993,4.9095,4.9265,4.9348,4.9462,4.9571,4.978,4.9913,5.0,5.0134,5.0307,5.0453,5.0488,5.0545,5.0557,5.0596,5.0481,5.047,5.0459,5.0423,5.0568,5.0569,5.0704,5.0705,5.0706]}]]